Fort Rucker / Ozark, AL

10:49 PM CST on November 19, 2017 (GMT -0600)
Fort Rucker / Ozark

Weather History for KLOR - January, 2014

Change the Weather History Date:

Wednesday, January 1, 2014

  Actual Average (KOZR) Record (KOZR)
Temperature  
Mean Temperature 48 °F -  
Max Temperature 54 °F 59 °F 75 °F (2013)
Min Temperature 43 °F 38 °F 24 °F (1998)
Degree Days  
Heating Degree Days 16    
Moisture  
Dew Point 45 °F    
Average Humidity 88    
Maximum Humidity 93    
Minimum Humidity 80    
Precipitation  
Precipitation 0.14 in - - ()
Sea Level Pressure  
Sea Level Pressure 30.23 in    
Wind  
Wind Speed 1 mph (NE)    
Max Wind Speed 5 mph    
Max Gust Speed -    
Visibility 7 miles    
Events Rain    
Averages and records for this station are not official NWS values.
T = Trace of Precipitation, MM = Missing Value Source: NWS Daily Summary

Daily Weather History Graph

Daily Weather History Graph

Search for Another Location

Airport or City:

Trip Planner

Search our weather history database for the weather conditions in past years. The results will help you decide how hot, cold, wet, or windy it might be!

Date:

Astronomy

Jan. 01, 2014 Rise Set
Actual Time 6:42 AM CST 4:51 PM CST
Civil Twilight 6:15 AM CST 5:18 PM CST
Nautical Twilight 5:45 AM CST 5:48 PM CST
Astronomical Twilight 5:15 AM CST 6:17 PM CST
Moon 6:35 AM CST (1/1) 5:30 PM CST (1/1)
Length of Visible Light 11h 02m
Length of Day
10h 09m
New Moon, 0% of the Moon is Illuminated
Jan 1
New Moon
Jan 7
First Quarter
Jan 15
Full
Jan 23
Last Quarter
Jan 30
New

Hourly Weather History & Observations

Time (CST) Temp. Windchill Dew Point Humidity Pressure Visibility Wind Dir Wind Speed Gust Speed Precip Events Conditions
12:53 AM 44.1 °F - 39.9 °F 85% 30.31 in 8.0 mi Calm Calm - 0.00 in   Overcast
1:53 AM 44.1 °F - 41.0 °F 89% 30.32 in 6.0 mi Calm Calm - 0.01 in Rain Light Rain
2:53 AM 43.0 °F - 39.9 °F 89% 30.31 in 6.0 mi Calm Calm - 0.03 in Rain Light Rain
3:53 AM 43.0 °F - 41.0 °F 93% 30.31 in 5.0 mi Calm Calm - 0.04 in Rain Light Rain
4:53 AM 44.1 °F - 41.0 °F 89% 30.29 in 7.0 mi Calm Calm - 0.01 in Rain Light Rain
5:53 AM 44.1 °F - 41.0 °F 89% 30.27 in 6.0 mi Calm Calm - 0.02 in Rain Light Rain
6:53 AM 44.1 °F - 42.1 °F 93% 30.30 in 6.0 mi Calm Calm - 0.01 in   Overcast
7:53 AM 45.0 °F - 43.0 °F 93% 30.30 in 4.0 mi Calm Calm - N/A   Overcast
8:53 AM 46.0 °F 44.8 °F 44.1 °F 93% 30.31 in 5.0 mi ENE 3.5 mph - N/A   Overcast
9:09 AM 46.4 °F - 44.6 °F 93% 30.31 in 5.0 mi Calm Calm - N/A   Overcast
9:53 AM 48.0 °F - 45.0 °F 89% 30.30 in 6.0 mi Calm Calm - N/A   Overcast
10:53 AM 48.9 °F - 45.0 °F 86% 30.30 in 6.0 mi Calm Calm - N/A   Overcast
11:02 AM 48.2 °F - 44.6 °F 87% 30.30 in 7.0 mi Calm Calm - N/A   Overcast
11:53 AM 51.1 °F - 46.0 °F 83% 30.26 in 7.0 mi NE 3.5 mph - N/A   Overcast
12:53 PM 51.1 °F - 46.0 °F 83% 30.22 in 7.0 mi NE 4.6 mph - N/A   Overcast
1:53 PM 53.1 °F - 46.9 °F 80% 30.20 in 9.0 mi Variable 4.6 mph - N/A   Partly Cloudy
2:53 PM 54.0 °F - 48.0 °F 80% 30.17 in 9.0 mi Calm Calm - N/A   Overcast
3:53 PM 54.0 °F - 48.0 °F 80% 30.17 in 9.0 mi Calm Calm - N/A   Overcast
4:53 PM 53.1 °F - 48.0 °F 83% 30.15 in 9.0 mi Calm Calm - N/A   Overcast
5:53 PM 52.0 °F - 48.9 °F 89% 30.14 in 9.0 mi Calm Calm - N/A   Partly Cloudy
6:53 PM 52.0 °F - 48.0 °F 86% 30.13 in 9.0 mi Calm Calm - N/A   Partly Cloudy
7:53 PM 51.1 °F - 48.0 °F 89% 30.16 in 9.0 mi Calm Calm - N/A   Clear
8:53 PM 51.1 °F - 48.0 °F 89% 30.14 in 7.0 mi Calm Calm - N/A   Clear
9:53 PM 51.1 °F - 48.0 °F 89% 30.14 in 6.0 mi Calm Calm - N/A   Mostly Cloudy
10:53 PM 51.1 °F - 48.9 °F 92% 30.12 in 4.0 mi Calm Calm - 0.01 in   Overcast
11:53 PM 51.1 °F - 48.9 °F 92% 30.09 in 4.0 mi NE 3.5 mph - 0.01 in Rain Light Rain